Location: Luxembourg
(49.6117°N, 6.1300°E)
Time: 01:25:36
(UTC+01:00)

Vanguard 2 Rocket - Pass Details

Date: 16 January 2026
Orbit: 553 x 3286 km, 32.9° (Epoch: 10 February)

Event Time Altitude Azimuth Distance (km) Brightness Sun altitude
Exits shadow 05:33:41 16° 218° (SW) 4,045 9.8 -27.2°
Maximum altitude 05:36:31 17° 203° (SSW) 4,212 10.0 -26.8°
Drops below altitude 10° 05:45:08 10° 170° (S) 5,501 11.0 -25.4°
Sets 05:52:24 0° 154° (SSE) 6,937 11.8 -24.2°
